Regional Weather Roundup
Issued by NWS Goodland, KS

Home | Current Version | Previous Version | Text Only | Print | Product List | Glossary On
Versions: 1 2 3 4 5 6 7 8 9 10 11 12 13 14 15 16 17 18 19 20 21 22 23 24 25 26 27 28 29 30 31 32 33 34 35 36 37 38 39 40 41 42 43 44 45 46 47 48 49 50
000
ASUS43 KGLD 260108
RWRGLD

GOODLAND FORECAST AREA HOURLY WEATHER ROUNDUP
NATIONAL WEATHER SERVICE GOODLAND KS
600 PM MST SUN JAN 25 2015

...OFFICIAL OBSERVATIONS...

CITY           SKY/WX    TMP DP  RH WIND       PRES   REMARKS
GOODLAND KS    CLEAR     40  31  70 CALM      30.13R
HILL CITY KS   PTCLDY    33  20  58 CALM      30.11R
IMPERIAL NEB   CLOUDY    47  32  56 W5        30.08R
MCCOOK NEB     CLEAR     43  19  38 S7        30.07S
AKRON CO       PTCLDY    37  30  75 W9        30.14R
BURLINGTON CO  CLEAR     43  32  65 NW5       30.14R
LIMON CO       CLEAR     35  26  69 W3        30.17R
$$

...UNOFFICIAL OBSERVATIONS...

CITY           SKY/WX    TMP DP  RH WIND       PRES   REMARKS
COLBY KS       CLEAR     39  30  70 SW3       30.12R
GOVE KS          N/A     37  32  82 MISG        N/A
NORTON KS      CLEAR     37  21  52 S3        30.08R
SHARON SPRINGS   N/A     43  31  63 CALM        N/A
KIT CARSON CO    N/A     39  26  58 MISG        N/A
YUMA CO          N/A     37  29  74 SW7         N/A
$$


USA.gov is the U.S. government's official web portal to all federal, state and local government web resources and services.